Location: Laterina
(43.5167°N, 11.7167°E)
Time: 19:42:01
(UTC+00:00)

ISS - Visible Passes

Search period start: 25 November 2020 00:00
Search period end: 05 December 2020 00:00
Orbit: 418 x 421 km, 51.6° (Epoch: 26 November)

Date Brightness Start Highest point End Pass type
(mag) Time Alt. Az. Time Alt. Az. Time Alt. Az.
25 Nov -3.5 16:21:28 10° WSW 16:24:48 62° NNW 16:27:59 11° NE visible
25 Nov -1.4 17:59:22 10° WNW 18:00:57 19° NW 18:00:57 19° NW visible
26 Nov -2.2 17:11:33 10° WNW 17:14:26 25° NNW 17:15:21 22° NNE visible
27 Nov -2.5 16:23:45 10° W 16:26:48 31° NNW 16:29:44 11° NE visible
27 Nov -1.1 18:01:45 10° NW 18:02:42 15° NW 18:02:42 15° NW visible
28 Nov -2.0 17:14:01 10° NW 17:16:37 20° N 17:17:04 20° N visible
29 Nov -2.0 16:26:12 10° WNW 16:28:55 22° N 16:31:26 11° NE visible
29 Nov -0.9 18:03:45 10° NW 18:04:23 13° NW 18:04:23 13° NW visible
30 Nov -2.0 17:16:10 10° NW 17:18:46 21° N 17:18:46 21° N visible
01 Dec -2.0 16:28:30 10° NW 16:31:04 20° N 16:33:09 12° NE visible
01 Dec -1.0 18:05:27 10° NW 18:06:07 14° NW 18:06:07 14° NW visible
02 Dec -2.4 17:17:57 10° NW 17:20:34 26° N 17:20:34 26° N visible
03 Dec -2.3 16:30:25 10° NW 16:33:10 23° N 16:35:04 15° NE visible
03 Dec -1.2 18:07:03 10° NW 18:08:02 18° NW 18:08:02 18° NW visible
04 Dec -3.3 17:19:32 10° NW 17:22:37 45° NNE 17:22:37 45° NNE visible
